,,PA_Meas_PMT16A,,PR_Meas_QMR101_102,,RH_Meas_QMH101,,SR_Meas_QMS101,,TA_Meas_QMH101,,GenWind,,GenWind,
time,status,PA,status,PR,status,RH,status,SR,status,TA,status,DirAvg,status,SpdAvg,
2016-03-24, 07:30:04,VALID,918.339,VALID,0,INVALID,109.533,VALID,88.4241,VALID,20.9706,VALID,129,VALID,0.928906,
2016-03-24, 07:31:04,VALID,918.364,VALID,0,INVALID,109.548,VALID,90.2506,VALID,21.0112,VALID,136,VALID,0.997266,
2016-03-24, 07:32:04,VALID,918.401,VALID,0,INVALID,109.571,VALID,92.2919,VALID,21.0291,VALID,139,VALID,1.30664,
2016-03-24, 07:33:04,VALID,918.388,VALID,0,INVALID,109.579,VALID,94.3333,VALID,21.0681,VALID,157,VALID,0.496094,
2016-03-24, 07:34:04,VALID,918.414,VALID,0,INVALID,109.579,VALID,96.3747,VALID,21.0876,VALID,157,VALID,0,
2016-03-24, 07:35:04,VALID,918.388,VALID,0,INVALID,109.556,VALID,98.4161,VALID,21.1071,VALID,147,VALID,0,
2016-03-24, 07:36:04,VALID,918.375,VALID,0,INVALID,109.526,VALID,100.457,VALID,21.1461,VALID,136,VALID,0.0121094,
2016-03-24, 07:37:04,VALID,918.404,VALID,0,INVALID,109.495,VALID,102.606,VALID,21.1657,VALID,130,VALID,0,
2016-03-24, 07:38:04,VALID,918.416,VALID,0,INVALID,109.457,VALID,104.648,VALID,21.1852,VALID,143,VALID,0,
2016-03-24, 07:39:04,VALID,918.424,VALID,0,INVALID,109.343,VALID,106.797,VALID,21.2242,VALID,144,VALID,0.611719,
2016-03-24, 07:40:04,VALID,918.433,VALID,0,INVALID,109.289,VALID,108.086,VALID,21.2632,VALID,130,VALID,0.627734,
2016-03-24, 07:41:04,VALID,918.433,VALID,0,INVALID,109.274,VALID,109.697,VALID,21.2827,VALID,146,VALID,1.09258,
2016-03-24, 07:42:04,VALID,918.439,VALID,0,INVALID,109.289,VALID,112.598,VALID,21.3217,VALID,161,VALID,1.04766,
2016-03-24, 07:43:04,VALID,918.46,VALID,0,INVALID,109.244,VALID,115.929,VALID,21.3591,VALID,144,VALID,1.48203,
2016-03-24, 07:44:04,VALID,918.46,VALID,0,INVALID,109.183,VALID,118.185,VALID,21.3998,VALID,135,VALID,1.3543,
2016-03-24, 07:45:04,VALID,918.447,VALID,0,INVALID,109.129,VALID,120.764,VALID,21.4388,VALID,155,VALID,0.977734,
2016-03-24, 07:46:04,VALID,918.468,VALID,0,INVALID,109.038,VALID,122.59,VALID,21.4583,VALID,160,VALID,1.36367,
2016-03-24, 07:47:04,VALID,918.475,VALID,0,VALID,104,VALID,124.095,VALID,21.5575,VALID,169,VALID,1.04219,
2016-03-24, 07:48:04,VALID,918.48,VALID,0,VALID,104,VALID,127.425,VALID,21.5965,VALID,152,VALID,1.03281,
2016-03-24, 07:49:04,VALID,918.523,VALID,0,VALID,104,VALID,129.252,VALID,21.6144,VALID,140,VALID,1.2043,
2016-03-24, 07:50:04,VALID,918.548,VALID,0,VALID,104,VALID,130.863,VALID,21.6551,VALID,136,VALID,1.38047,
2016-03-24, 07:51:04,VALID,918.573,VALID,0,VALID,104,VALID,135.913,VALID,21.6941,VALID,150,VALID,1.92539,
2016-03-24, 07:52:04,VALID,918.597,VALID,0,VALID,104,VALID,139.244,VALID,21.7721,VALID,175,VALID,0.413281,
2016-03-24, 07:53:04,VALID,918.604,VALID,0,VALID,104,VALID,142.037,VALID,21.8112,VALID,129,VALID,1.15,
2016-03-24, 07:54:04,VALID,918.606,VALID,0,VALID,104,VALID,144.723,VALID,21.8095,VALID,137,VALID,1.87734,
2016-03-24, 07:55:04,VALID,918.624,VALID,0,VALID,104,VALID,143.864,VALID,21.8697,VALID,154,VALID,1.175,
2016-03-24, 07:56:04,VALID,918.641,VALID,0,VALID,104,VALID,147.194,VALID,21.8876,VALID,129,VALID,2.64609,
2016-03-24, 07:57:04,VALID,918.659,VALID,0,VALID,104,VALID,149.236,VALID,21.9656,VALID,175,VALID,1.0918,
2016-03-24, 07:58:04,VALID,918.691,VALID,0,VALID,104,VALID,152.137,VALID,22.003,VALID,148,VALID,1.28516,
2016-03-24, 07:59:04,VALID,918.712,VALID,0,VALID,104,VALID,156.112,VALID,22.0225,VALID,149,VALID,0.746094,
2016-03-24, 08:00:04,VALID,918.732,VALID,0,VALID,104,VALID,161.054,VALID,22.081,VALID,141,VALID,0.946484,
2016-03-24, 08:01:04,VALID,918.732,VALID,0,VALID,104,VALID,163.633,VALID,22.081,VALID,150,VALID,0.925,
2016-03-24, 08:02:04,VALID,918.775,VALID,0,VALID,104,VALID,164.922,VALID,22.1396,VALID,152,VALID,0,
2016-03-24, 08:03:04,VALID,918.771,VALID,0,VALID,104,VALID,167.393,VALID,22.2176,VALID,161,VALID,0,
2016-03-24, 08:04:04,VALID,918.734,VALID,0,VALID,104,VALID,172.658,VALID,22.255,VALID,153,VALID,0,
2016-03-24, 08:05:04,VALID,918.774,VALID,0,VALID,104,VALID,174.484,VALID,22.3152,VALID,149,VALID,0.951563,
2016-03-24, 08:06:04,VALID,918.769,VALID,0,VALID,104,VALID,180.609,VALID,22.3542,VALID,137,VALID,0,
2016-03-24, 08:07:04,VALID,918.743,VALID,0,VALID,104,VALID,185.229,VALID,22.372,VALID,160,VALID,0,
2016-03-24, 08:08:04,VALID,918.763,VALID,0,VALID,104,VALID,188.882,VALID,22.4306,VALID,147,VALID,0.726953,
2016-03-24, 08:09:04,VALID,918.742,VALID,0,VALID,104,VALID,192.857,VALID,22.4908,VALID,127,VALID,0.0277344,
2016-03-24, 08:10:04,VALID,918.768,VALID,0,VALID,104,VALID,195.973,VALID,22.5086,VALID,150,VALID,0,
2016-03-24, 08:11:04,VALID,918.767,VALID,0,VALID,104,VALID,199.303,VALID,22.647,VALID,137,VALID,0,
2016-03-24, 08:12:04,VALID,918.778,VALID,0,VALID,104,VALID,201.774,VALID,22.686,VALID,135,VALID,0.128125,
2016-03-24, 08:13:04,VALID,918.803,VALID,0,VALID,104,VALID,206.287,VALID,22.7038,VALID,138,VALID,0.342969,
2016-03-24, 08:14:04,VALID,918.795,VALID,0,VALID,104,VALID,211.014,VALID,22.7658,VALID,133,VALID,0.732422,
2016-03-24, 08:15:04,VALID,918.832,VALID,0,VALID,104,VALID,217.891,VALID,22.8243,VALID,144,VALID,0.176563,
2016-03-24, 08:16:04,VALID,918.838,VALID,0,VALID,104,VALID,222.726,VALID,22.9007,VALID,138,VALID,0,
2016-03-24, 08:17:04,VALID,918.854,VALID,0,VALID,104,VALID,225.734,VALID,22.9202,VALID,148,VALID,0.34375,
2016-03-24, 08:18:04,VALID,918.854,VALID,0,VALID,103.961,VALID,229.924,VALID,22.977,VALID,132,VALID,0,
2016-03-24, 08:19:04,VALID,918.877,VALID,0,VALID,104,VALID,232.825,VALID,23.0763,VALID,124,VALID,0,
2016-03-24, 08:20:04,VALID,918.872,VALID,0,VALID,103.473,VALID,234.007,VALID,23.1739,VALID,164,VALID,0,
2016-03-24, 08:21:04,VALID,918.93,VALID,0,VALID,102.802,VALID,237.123,VALID,23.1722,VALID,147,VALID,0,
2016-03-24, 08:22:04,VALID,918.935,VALID,0,VALID,103.229,VALID,240.776,VALID,23.252,VALID,116,VALID,0,
2016-03-24, 08:23:04,VALID,918.949,VALID,0,VALID,103.198,VALID,248.511,VALID,23.3106,VALID,147,VALID,0.00234375,
2016-03-24, 08:24:04,VALID,918.959,VALID,0,VALID,102.093,VALID,252.379,VALID,23.3301,VALID,140,VALID,0.0121094,
2016-03-24, 08:25:04,VALID,918.991,VALID,0,VALID,103.091,VALID,257.322,VALID,23.4472,VALID,117,VALID,0.478125,
2016-03-24, 08:26:04,VALID,918.998,VALID,0,VALID,102.283,VALID,263.983,VALID,23.4863,VALID,139,VALID,0.111328,
2016-03-24, 08:27:04,VALID,919,VALID,0,VALID,101.651,VALID,268.388,VALID,23.5253,VALID,148,VALID,0.0726563,
2016-03-24, 08:28:04,VALID,919.031,VALID,0,VALID,102.52,VALID,270.967,VALID,23.5839,VALID,136,VALID,0,
2016-03-24, 08:29:04,VALID,919.019,VALID,0,VALID,101.452,VALID,270.537,VALID,23.6229,VALID,149,VALID,0,
2016-03-24, 08:30:04,VALID,919.017,VALID,0,VALID,101.552,VALID,279.025,VALID,23.6229,VALID,181,VALID,0,
2016-03-24, 08:31:04,VALID,919.037,VALID,0,VALID,100.896,VALID,288.587,VALID,23.6797,VALID,128,VALID,0,
2016-03-24, 08:32:04,VALID,919.03,VALID,0,VALID,100.782,VALID,298.794,VALID,23.7382,VALID,170,VALID,0.00273437,
2016-03-24, 08:33:04,VALID,919.027,VALID,0,VALID,101.529,VALID,310.183,VALID,23.7986,VALID,191,VALID,0,
2016-03-24, 08:34:04,VALID,919.039,VALID,0,VALID,100.538,VALID,316.307,VALID,23.8181,VALID,172,VALID,0,
2016-03-24, 08:35:04,VALID,919.026,VALID,0,VALID,100.713,VALID,317.596,VALID,23.8377,VALID,167,VALID,0,
2016-03-24, 08:36:04,VALID,919.069,VALID,0,VALID,101.224,VALID,324.902,VALID,23.8554,VALID,215,VALID,0,
2016-03-24, 08:37:04,VALID,919.035,VALID,0,VALID,100.774,VALID,333.282,VALID,23.9158,VALID,142,VALID,0,
2016-03-24, 08:38:04,VALID,919.017,VALID,0,VALID,98.1667,VALID,340.266,VALID,23.9335,VALID,184,VALID,0.221484,
2016-03-24, 08:39:04,VALID,919.029,VALID,0,VALID,97.1909,VALID,349.291,VALID,23.953,VALID,180,VALID,0.494531,
2016-03-24, 08:40:04,VALID,919.029,VALID,0,VALID,99.6457,VALID,355.845,VALID,23.9725,VALID,142,VALID,0,
2016-03-24, 08:41:04,VALID,919.077,VALID,0,VALID,97.229,VALID,360.895,VALID,23.9725,VALID,165,VALID,0,
2016-03-24, 08:42:04,VALID,919.076,VALID,0,VALID,96.4591,VALID,369.383,VALID,23.992,VALID,165,VALID,0.296875,
2016-03-24, 08:43:04,VALID,919.087,VALID,0,VALID,97.0842,VALID,375.399,VALID,23.9335,VALID,156,VALID,0.398047,
2016-03-24, 08:44:04,VALID,919.089,VALID,0,VALID,89.3236,VALID,380.879,VALID,23.9335,VALID,142,VALID,0.559375,
2016-03-24, 08:45:04,VALID,919.112,VALID,0,VALID,97.0461,VALID,388.937,VALID,24.0719,VALID,173,VALID,0.0351563,
2016-03-24, 08:46:04,VALID,919.103,VALID,0,VALID,97.7093,VALID,398.284,VALID,24.1305,VALID,168,VALID,0.984766,
2016-03-24, 08:47:04,VALID,919.123,VALID,0,VALID,98.8681,VALID,403.334,VALID,24.1305,VALID,117,VALID,0.151953,
2016-03-24, 08:48:04,VALID,919.113,VALID,0,VALID,96.4438,VALID,405.483,VALID,24.2672,VALID,171,VALID,0,
2016-03-24, 08:49:04,VALID,919.11,VALID,0,VALID,97.5797,VALID,411.607,VALID,24.402,VALID,191,VALID,0,
2016-03-24, 08:50:04,VALID,919.094,VALID,0,VALID,85.3899,VALID,414.508,VALID,24.4997,VALID,150,VALID,0.15,
2016-03-24, 08:51:04,VALID,919.125,VALID,0,VALID,87.4025,VALID,422.244,VALID,24.5601,VALID,171,VALID,0.779688,
2016-03-24, 08:52:04,VALID,919.133,VALID,0,VALID,87.6693,VALID,428.69,VALID,24.5778,VALID,178,VALID,0.0660156,
2016-03-24, 08:53:04,VALID,919.147,VALID,0,VALID,84.0482,VALID,434.814,VALID,24.5582,VALID,151,VALID,0.739062,
2016-03-24, 08:54:04,VALID,919.208,VALID,0,VALID,85.5119,VALID,438.682,VALID,24.5387,VALID,159,VALID,0.285937,
2016-03-24, 08:55:04,VALID,919.128,VALID,0,VALID,88.8357,VALID,441.691,VALID,24.6559,VALID,172,VALID,0.128906,
2016-03-24, 08:56:04,VALID,919.175,VALID,0,VALID,80.8311,VALID,442.658,VALID,24.6735,VALID,150,VALID,1.69375,
2016-03-24, 08:57:04,VALID,919.236,VALID,0,VALID,82.1652,VALID,443.517,VALID,24.7535,VALID,164,VALID,0.734766,
2016-03-24, 08:58:04,VALID,919.231,VALID,0,VALID,84.071,VALID,446.418,VALID,24.7144,VALID,108,VALID,0.199219,
2016-03-24, 08:59:04,VALID,919.246,VALID,0,VALID,82.5235,VALID,446.74,VALID,24.693,VALID,176,VALID,1.36016,
2016-03-24, 09:00:04,VALID,919.222,VALID,0,VALID,83.5831,VALID,441.476,VALID,24.8297,VALID,110,VALID,0,
2016-03-24, 09:01:04,VALID,919.25,VALID,0,VALID,82.8437,VALID,439.864,VALID,24.9664,VALID,177,VALID,0,
2016-03-24, 09:02:04,VALID,919.25,VALID,0,VALID,82.2643,VALID,433.632,VALID,25.1831,VALID,138,VALID,0,
2016-03-24, 09:03:04,VALID,919.266,VALID,0,VALID,80.7396,VALID,444.591,VALID,25.3374,VALID,172,VALID,0.240234,
2016-03-24, 09:04:04,VALID,919.245,VALID,0,VALID,78.3077,VALID,453.509,VALID,25.3374,VALID,132,VALID,1.07695,
2016-03-24, 09:05:04,VALID,919.219,VALID,0,VALID,77.9494,VALID,458.774,VALID,25.2203,VALID,131,VALID,1.92109,
2016-03-24, 09:06:04,VALID,919.216,VALID,0,VALID,80.8082,VALID,458.989,VALID,25.1812,VALID,156,VALID,0.487109,
2016-03-24, 09:07:04,VALID,919.214,VALID,0,VALID,80.4575,VALID,463.609,VALID,25.1617,VALID,143,VALID,0.840234,
2016-03-24, 09:08:04,VALID,919.216,VALID,0,VALID,80.0764,VALID,470.592,VALID,25.2007,VALID,136,VALID,0.197266,
2016-03-24, 09:09:04,VALID,919.187,VALID,0,VALID,80.3051,VALID,478.113,VALID,25.1422,VALID,126,VALID,1.77305,
2016-03-24, 09:10:04,VALID,919.201,VALID,0,VALID,80.488,VALID,481.444,VALID,25.1617,VALID,124,VALID,1.11758,
2016-03-24, 09:11:04,VALID,919.176,VALID,0,VALID,78.9252,VALID,485.419,VALID,25.1226,VALID,68,VALID,2.5457,
2016-03-24, 09:12:04,VALID,919.209,VALID,0,VALID,80.1297,VALID,494.981,VALID,25.1012,VALID,149,VALID,2.09883,
2016-03-24, 09:13:04,VALID,919.192,VALID,0,VALID,79.6342,VALID,504.973,VALID,25.1617,VALID,143,VALID,1.19883,
2016-03-24, 09:14:04,VALID,919.19,VALID,0,VALID,80.9378,VALID,506.048,VALID,25.2007,VALID,127,VALID,0.508594,
2016-03-24, 09:15:04,VALID,919.171,VALID,0,VALID,82.0889,VALID,511.527,VALID,25.3179,VALID,104,VALID,0.276563,
2016-03-24, 09:16:04,VALID,919.218,VALID,0,VALID,77.6902,VALID,516.685,VALID,25.4741,VALID,142,VALID,1.32461,
2016-03-24, 09:17:04,VALID,919.234,VALID,0,VALID,77.1718,VALID,516.147,VALID,25.4937,VALID,150,VALID,1.25937,
2016-03-24, 09:18:04,VALID,919.227,VALID,0,VALID,76.7907,VALID,517.866,VALID,25.4741,VALID,161,VALID,1.9875,
2016-03-24, 09:19:04,VALID,919.232,VALID,0,VALID,77.9494,VALID,515.073,VALID,25.4351,VALID,120,VALID,1.64609,
2016-03-24, 09:20:04,VALID,919.25,VALID,0,VALID,79.5275,VALID,530.115,VALID,25.5718,VALID,129,VALID,1.29688,
2016-03-24, 09:21:04,VALID,919.223,VALID,0,VALID,77.7055,VALID,530.652,VALID,25.5327,VALID,121,VALID,1.99922,
2016-03-24, 09:22:04,VALID,919.278,VALID,0,VALID,78.1629,VALID,527.966,VALID,25.5327,VALID,165,VALID,2.17266,
2016-03-24, 09:23:04,VALID,919.277,VALID,0,VALID,77.2328,VALID,519.8,VALID,25.5718,VALID,97,VALID,1.28086,
2016-03-24, 09:24:04,VALID,919.271,VALID,0,VALID,79.9849,VALID,502.287,VALID,25.6109,VALID,52,VALID,0.0398437,
2016-03-24, 09:25:04,VALID,919.264,VALID,0,VALID,77.2786,VALID,514.428,VALID,25.8062,VALID,106,VALID,1.47852,
2016-03-24, 09:26:04,VALID,919.322,VALID,0,VALID,77.4692,VALID,531.189,VALID,25.9038,VALID,151,VALID,0.866406,
2016-03-24, 09:27:04,VALID,919.318,VALID,0,VALID,76.9813,VALID,564.926,VALID,25.9234,VALID,122,VALID,2.02227,
2016-03-24, 09:28:04,VALID,919.314,VALID,0,VALID,78.2162,VALID,566.752,VALID,25.9429,VALID,108,VALID,0.961328,
2016-03-24, 09:29:04,VALID,919.334,VALID,0,VALID,75.083,VALID,558.587,VALID,25.8452,VALID,154,VALID,1.34727,
2016-03-24, 09:30:04,VALID,919.347,VALID,0,VALID,73.9776,VALID,563.959,VALID,25.8237,VALID,138,VALID,1.95547,
2016-03-24, 09:31:04,VALID,919.324,VALID,0,VALID,74.5951,VALID,581.471,VALID,25.8062,VALID,155,VALID,2.02187,
2016-03-24, 09:32:04,VALID,919.327,VALID,0,VALID,75.3803,VALID,572.339,VALID,25.8843,VALID,153,VALID,0.336328,
2016-03-24, 09:33:04,VALID,919.366,VALID,0,VALID,76.0893,VALID,555.148,VALID,25.982,VALID,148,VALID,0.246875,
2016-03-24, 09:34:04,VALID,919.388,VALID,0,VALID,75.6853,VALID,572.232,VALID,26.1362,VALID,171,VALID,0.935938,
2016-03-24, 09:35:04,VALID,919.392,VALID,0,VALID,75.083,VALID,555.363,VALID,26.1362,VALID,132,VALID,1.29023,
2016-03-24, 09:36:04,VALID,919.388,VALID,0,VALID,77.6216,VALID,465.113,VALID,26.021,VALID,83,VALID,1.56445,
2016-03-24, 09:37:04,VALID,919.436,VALID,0,VALID,77.431,VALID,500.353,VALID,26.0386,VALID,121,VALID,0.350391,
2016-03-24, 09:38:04,VALID,919.412,VALID,0,VALID,73.6041,VALID,558.801,VALID,26.019,VALID,151,VALID,0.953125,
2016-03-24, 09:39:04,VALID,919.441,VALID,0,VALID,76.7678,VALID,553.214,VALID,25.9995,VALID,137,VALID,1.19922,
2016-03-24, 09:40:04,VALID,919.448,VALID,0,VALID,79.1997,VALID,571.909,VALID,25.9995,VALID,70,VALID,1.58867,
2016-03-24, 09:41:04,VALID,919.463,VALID,0,VALID,74.8391,VALID,508.734,VALID,26.1948,VALID,77,VALID,1.33398,
2016-03-24, 09:42:04,VALID,919.445,VALID,0,VALID,74.7019,VALID,573.091,VALID,26.2144,VALID,87,VALID,3.17578,
2016-03-24, 09:43:04,VALID,919.493,VALID,0,VALID,72.552,VALID,588.563,VALID,26.0972,VALID,108,VALID,1.60977,
2016-03-24, 09:44:04,VALID,919.514,VALID,0,VALID,74.7552,VALID,574.488,VALID,25.9194,VALID,131,VALID,1.80898,
2016-03-24, 09:45:04,VALID,919.529,VALID,0,VALID,73.5736,VALID,614.134,VALID,25.9038,VALID,122,VALID,1.45547,
2016-03-24, 09:46:04,VALID,919.497,VALID,0,VALID,75.8454,VALID,602.745,VALID,25.8843,VALID,150,VALID,0.267578,
2016-03-24, 09:47:04,VALID,919.551,VALID,0,VALID,76.6458,VALID,513.891,VALID,25.9604,VALID,112,VALID,0.6875,
2016-03-24, 09:48:04,VALID,919.558,VALID,0,VALID,74.5723,VALID,562.454,VALID,25.98,VALID,147,VALID,1.06484,
2016-03-24, 09:49:04,VALID,919.546,VALID,0,VALID,75.2355,VALID,558.049,VALID,26.019,VALID,130,VALID,1.2793,
2016-03-24, 09:50:04,VALID,919.537,VALID,0,VALID,76.1503,VALID,529.255,VALID,26.021,VALID,101,VALID,0.664453,
2016-03-24, 09:51:04,VALID,919.545,VALID,0,VALID,72.9713,VALID,563.851,VALID,25.982,VALID,118,VALID,1.07695,
2016-03-24, 09:52:04,VALID,919.539,VALID,0,VALID,75.1974,VALID,350.688,VALID,26.0601,VALID,71,VALID,0.507813,
2016-03-24, 09:53:04,VALID,919.537,VALID,0,VALID,75.2355,VALID,551.603,VALID,26.2534,VALID,57,VALID,0.242578,
2016-03-24, 09:54:04,VALID,919.57,VALID,0,VALID,73.3525,VALID,571.587,VALID,26.4117,VALID,123,VALID,0.634766,
2016-03-24, 09:55:04,VALID,919.542,VALID,0,VALID,74.0767,VALID,562.132,VALID,26.4117,VALID,83,VALID,0.0570313,
2016-03-24, 09:56:04,VALID,919.558,VALID,0,VALID,72.8875,VALID,512.709,VALID,26.3316,VALID,74,VALID,1.27539,
2016-03-24, 09:57:04,VALID,919.53,VALID,0,VALID,73.6803,VALID,584.91,VALID,26.2945,VALID,61,VALID,1.42578,
2016-03-24, 09:58:04,VALID,919.528,VALID,0,VALID,74.9763,VALID,636.159,VALID,26.273,VALID,67,VALID,1.13281,
2016-03-24, 09:59:04,VALID,919.539,VALID,0,VALID,74.4655,VALID,584.265,VALID,26.3316,VALID,115,VALID,0.355859,
2016-03-24, 10:00:04,VALID,919.504,VALID,0,VALID,76.623,VALID,612.307,VALID,26.4468,VALID,72,VALID,0.885938,
2016-03-24, 10:01:04,VALID,919.516,VALID,0,VALID,76.0893,VALID,628.101,VALID,26.6421,VALID,144,VALID,0.0617188,
2016-03-24, 10:02:04,VALID,919.52,VALID,0,VALID,71.8507,VALID,451.79,VALID,26.6832,VALID,129,VALID,0.905469,
2016-03-24, 10:03:04,VALID,919.49,VALID,0,VALID,73.3296,VALID,409.995,VALID,26.6636,VALID,101,VALID,2.03437,
2016-03-24, 10:04:04,VALID,919.504,VALID,0,VALID,71.9269,VALID,401.83,VALID,26.3882,VALID,121,VALID,1.52891,
2016-03-24, 10:05:04,VALID,919.515,VALID,0,VALID,73.0399,VALID,396.78,VALID,26.3296,VALID,116,VALID,0.311719,
2016-03-24, 10:06:04,VALID,919.486,VALID,0,VALID,75.4261,VALID,377.978,VALID,26.4077,VALID,105,VALID,0,
2016-03-24, 10:07:04,VALID,919.472,VALID,0,VALID,73.1467,VALID,362.184,VALID,26.5054,VALID,72,VALID,0.00546875,
2016-03-24, 10:08:04,VALID,919.478,VALID,0,VALID,73.5355,VALID,361.217,VALID,26.5249,VALID,96,VALID,0,
2016-03-24, 10:09:04,VALID,919.463,VALID,0,VALID,73.0628,VALID,362.829,VALID,26.5444,VALID,102,VALID,0,
2016-03-24, 10:10:04,VALID,919.486,VALID,0,VALID,72.4377,VALID,373.358,VALID,26.603,VALID,101,VALID,0,
2016-03-24, 10:11:04,VALID,919.464,VALID,0,VALID,71.6677,VALID,420.095,VALID,26.5835,VALID,76,VALID,0.181641,
2016-03-24, 10:12:04,VALID,919.442,VALID,0,VALID,69.8915,VALID,412.681,VALID,26.5855,VALID,46,VALID,1.00039,
2016-03-24, 10:13:04,VALID,919.428,VALID,0,VALID,70.8901,VALID,435.674,VALID,26.5054,VALID,55,VALID,0,
2016-03-24, 10:14:04,VALID,919.415,VALID,0,VALID,72.3157,VALID,436.963,VALID,26.4663,VALID,59,VALID,1.0207,
2016-03-24, 10:15:04,VALID,919.43,VALID,0,VALID,71.683,VALID,460.6,VALID,26.5054,VALID,41,VALID,0,
2016-03-24, 10:16:04,VALID,919.462,VALID,0,VALID,71.9498,VALID,445.773,VALID,26.7007,VALID,41,VALID,0,
2016-03-24, 10:17:04,VALID,919.445,VALID,0,VALID,71.7211,VALID,464.576,VALID,26.896,VALID,70,VALID,0.155078,
2016-03-24, 10:18:04,VALID,919.453,VALID,0,VALID,71.9117,VALID,459.848,VALID,26.9351,VALID,133,VALID,0,
2016-03-24, 10:19:04,VALID,919.461,VALID,0,VALID,71.0807,VALID,449.319,VALID,27.0523,VALID,80,VALID,0,
2016-03-24, 10:20:04,VALID,919.475,VALID,0,VALID,70.6386,VALID,446.096,VALID,27.0523,VALID,134,VALID,0,
2016-03-24, 10:21:04,VALID,919.457,VALID,0,VALID,69.4798,VALID,451.36,VALID,26.9937,VALID,132,VALID,0,
2016-03-24, 10:22:04,VALID,919.467,VALID,0,VALID,70.0439,VALID,442.658,VALID,26.9937,VALID,131,VALID,0,
2016-03-24, 10:23:04,VALID,919.49,VALID,0,VALID,69.3121,VALID,455.228,VALID,26.9742,VALID,157,VALID,0,
2016-03-24, 10:24:04,VALID,919.496,VALID,0,VALID,68.4202,VALID,448.889,VALID,27.0523,VALID,181,VALID,0.000390625,
2016-03-24, 10:25:04,VALID,919.51,VALID,0,VALID,70.2879,VALID,441.583,VALID,27.0523,VALID,157,VALID,0,
2016-03-24, 10:26:04,VALID,919.51,VALID,0,VALID,68.1686,VALID,441.583,VALID,27.0348,VALID,175,VALID,0,
2016-03-24, 10:27:04,VALID,919.495,VALID,0,VALID,68.6031,VALID,460.385,VALID,26.9372,VALID,184,VALID,0.394531,
2016-03-24, 10:28:04,VALID,919.492,VALID,0,VALID,68.7937,VALID,460.708,VALID,26.9762,VALID,198,VALID,0,
2016-03-24, 10:29:04,VALID,919.488,VALID,0,VALID,71.2637,VALID,446.525,VALID,27.113,VALID,160,VALID,0.0148437,
2016-03-24, 10:30:04,VALID,919.496,VALID,0,VALID,68.0161,VALID,478.435,VALID,27.0935,VALID,156,VALID,0,
2016-03-24, 10:31:04,VALID,919.489,VALID,0,VALID,69.922,VALID,438.682,VALID,27.0739,VALID,205,VALID,0.214453,
2016-03-24, 10:32:04,VALID,919.501,VALID,0,VALID,68.0695,VALID,429.657,VALID,27.15,VALID,194,VALID,0.927734,
2016-03-24, 10:33:04,VALID,919.493,VALID,0,VALID,68.1533,VALID,423.748,VALID,27.2498,VALID,206,VALID,0.00585938,
2016-03-24, 10:34:04,VALID,919.498,VALID,0,VALID,69.8839,VALID,416.549,VALID,27.2107,VALID,123,VALID,0.441016,
2016-03-24, 10:35:04,VALID,919.49,VALID,0,VALID,67.6121,VALID,402.582,VALID,26.8765,VALID,111,VALID,0.410937,
2016-03-24, 10:36:04,VALID,919.451,VALID,0,VALID,69.9296,VALID,398.499,VALID,26.7007,VALID,113,VALID,0.0210938,
2016-03-24, 10:37:04,VALID,919.455,VALID,0,VALID,72.2319,VALID,393.879,VALID,26.7223,VALID,150,VALID,0.0289063,
2016-03-24, 10:38:04,VALID,919.45,VALID,0,VALID,72.5597,VALID,387.97,VALID,26.7027,VALID,200,VALID,0.389062,
2016-03-24, 10:39:04,VALID,919.457,VALID,0,VALID,68.7403,VALID,382.92,VALID,26.6421,VALID,221,VALID,0.197656,
2016-03-24, 10:40:04,VALID,919.449,VALID,0,VALID,69.2206,VALID,380.342,VALID,26.7027,VALID,199,VALID,0.746094,
2016-03-24, 10:41:04,VALID,919.445,VALID,0,VALID,68.565,VALID,380.557,VALID,26.7007,VALID,149,VALID,0,
2016-03-24, 10:42:04,VALID,919.47,VALID,0,VALID,70.8673,VALID,381.094,VALID,26.8395,VALID,152,VALID,0.253906,
2016-03-24, 10:43:04,VALID,919.441,VALID,0,VALID,70.6081,VALID,382.383,VALID,26.8179,VALID,180,VALID,0.245312,
2016-03-24, 10:44:04,VALID,919.481,VALID,0,VALID,69.0377,VALID,385.177,VALID,26.8395,VALID,163,VALID,0.128516,
2016-03-24, 10:45:04,VALID,919.468,VALID,0,VALID,69.7466,VALID,388.292,VALID,26.8199,VALID,160,VALID,0.117969,
2016-03-24, 10:46:04,VALID,919.492,VALID,0,VALID,71.9269,VALID,392.912,VALID,26.8179,VALID,160,VALID,0,
2016-03-24, 10:47:04,VALID,919.456,VALID,0,VALID,69.2816,VALID,401.508,VALID,26.896,VALID,171,VALID,0.725781,
2016-03-24, 10:48:04,VALID,919.479,VALID,0,VALID,72.5825,VALID,410.748,VALID,26.9567,VALID,102,VALID,1.06289,
2016-03-24, 10:49:04,VALID,919.536,VALID,0,VALID,68.3363,VALID,417.839,VALID,26.7223,VALID,134,VALID,2.41914,
2016-03-24, 10:50:04,VALID,919.463,VALID,0,VALID,70.1735,VALID,427.508,VALID,26.4683,VALID,180,VALID,1.9,
2016-03-24, 10:51:04,VALID,919.483,VALID,0,VALID,72.4301,VALID,433.095,VALID,26.4468,VALID,171,VALID,0.600391,
2016-03-24, 10:52:04,VALID,919.473,VALID,0,VALID,71.8354,VALID,442.98,VALID,26.4097,VALID,145,VALID,0.104687,
2016-03-24, 10:53:04,VALID,919.483,VALID,0,VALID,73.7184,VALID,474.138,VALID,26.4468,VALID,151,VALID,0.009375,
2016-03-24, 10:54:04,VALID,919.484,VALID,0,VALID,71.8659,VALID,458.237,VALID,26.3902,VALID,142,VALID,0.839453,
2016-03-24, 10:55:04,VALID,919.484,VALID,0,VALID,71.3247,VALID,452.22,VALID,26.312,VALID,114,VALID,2.50508,
2016-03-24, 10:56:04,VALID,919.461,VALID,0,VALID,70.5928,VALID,441.691,VALID,26.2534,VALID,168,VALID,1.12227,
2016-03-24, 10:57:04,VALID,919.429,VALID,0,VALID,72.1023,VALID,464.038,VALID,26.2339,VALID,165,VALID,0.566016,
2016-03-24, 10:58:04,VALID,919.451,VALID,0,VALID,75.1745,VALID,442.228,VALID,26.4097,VALID,165,VALID,0,
2016-03-24, 10:59:04,VALID,919.407,VALID,0,VALID,72.7426,VALID,439.757,VALID,26.5269,VALID,98,VALID,1.10078,
2016-03-24, 11:00:04,VALID,919.392,VALID,0,VALID,73.5583,VALID,438.36,VALID,26.5269,VALID,129,VALID,0.0519531,
2016-03-24, 11:01:04,VALID,919.394,VALID,0,VALID,72.9866,VALID,439.219,VALID,26.605,VALID,152,VALID,0,
2016-03-24, 11:02:04,VALID,919.355,VALID,0,VALID,71.7592,VALID,459.526,VALID,26.7223,VALID,149,VALID,0,
2016-03-24, 11:03:04,VALID,919.353,VALID,0,VALID,69.6247,VALID,464.468,VALID,26.7613,VALID,126,VALID,0.0898438,
2016-03-24, 11:04:04,VALID,919.359,VALID,0,VALID,70.8978,VALID,447.922,VALID,26.7613,VALID,140,VALID,0.753906,
2016-03-24, 11:05:04,VALID,919.316,VALID,0,VALID,68.3592,VALID,448.244,VALID,26.605,VALID,167,VALID,0.64375,
2016-03-24, 11:06:04,VALID,919.335,VALID,0,VALID,69.274,VALID,473.601,VALID,26.6441,VALID,135,VALID,1.34609,
2016-03-24, 11:07:04,VALID,919.297,VALID,0,VALID,70.1583,VALID,454.476,VALID,26.5054,VALID,119,VALID,0.559375,